Flag for Albania Weather past 2 weeks in Tirana, Albania

Now
32 °F

Clear.


Feels Like: 32 °F
Forecast: 43 / 58 °F
Wind: No wind

Location: Tirana Airport

Current Time: Jan 29, 2015 at 8:20:37 AM

Latest Report: Jan 29, 2015 at 7:50 AM


Visibility: 5 mi

Pressure: 29.74 "Hg

Humidity: 93%

Dew point: 30 °F

Location of TiranaLocation

Historic Weather in Tirana — Graph

°F

Tirana temperature yesterday

Maximum temperature yesterday: 54 °F (at 12:50 PM)
Minimum temperature yesterday: 34 °F (at 10:50 PM)
Average temperature yesterday: 45 °F

Past Weeks' High & Low Weather Summary

 TemperatureHumidityPressure
High64 °F (Jan 22, 2:20 PM)100% (Jan 21, 1:50 AM)30.24 "Hg (Jan 21, 1:50 AM)
Low25 °F (Jan 14, 6:20 AM)31% (Jan 16, 1:20 PM)29.59 "Hg (Jan 22, 11:50 PM)
Average46 °F80%29.95 "Hg
* Reported Jan 14 6:20 AM — Jan 29 6:50 AM, Tirana, Weather by CustomWeather, © 2014

Note: Actual official high and low records may vary slightly from our data, if they occured in-between our weather recording intervals... More about our weather records

Advertising

Tirana weather history for previous 24 hours

 ConditionsComfort  
Time TempWeatherWind HumidityBarometerVisibility
6:50 AM
Jan 29
30 °FClear.5 mph93%29.74 "Hg5 mi
6:20 AM32 °FClear.5 mph93%29.71 "Hg10 mi
5:50 AM30 °FClear.2 mph93%29.71 "Hg5 mi
5:20 AM30 °FClear.2 mph93%29.74 "Hg4 mi
4:50 AM30 °FClear.5 mph93%29.74 "Hg4 mi
4:20 AM30 °FClear.2 mph93%29.74 "Hg4 mi
3:50 AM32 °FClear.3 mph93%29.74 "Hg4 mi
3:20 AM32 °FClear.No wind87%29.74 "Hg4 mi
2:50 AM32 °FClear.No wind93%29.74 "Hg4 mi
2:20 AM32 °FClear.No wind93%29.74 "Hg5 mi
1:50 AM34 °FClear.5 mph93%29.74 "Hg4 mi
1:20 AM34 °FClear.3 mph93%29.74 "Hg4 mi
12:50 AM32 °FClear.3 mph93%29.77 "Hg4 mi
12:20 AM34 °FClear.5 mph93%29.77 "Hg5 mi
11:50 PM
Jan 28
36 °FClear.3 mph87%29.77 "Hg5 mi
11:20 PM36 °FClear.3 mph93%29.77 "Hg5 mi
10:50 PM34 °FClear.1 mph93%29.77 "Hg5 mi
10:20 PM36 °FClear.No wind87%29.77 "Hg5 mi
9:50 PM37 °FClear.No wind87%29.77 "Hg5 mi
9:20 PM37 °FPassing clouds.5 mph87%29.77 "HgN/A
8:50 PM39 °FPassing clouds.3 mph81%29.80 "HgN/A
8:20 PM37 °FPassing clouds.5 mph87%29.80 "HgN/A
7:50 PM39 °FPassing clouds.5 mph81%29.80 "HgN/A
7:20 PM43 °FPassing clouds.5 mph71%29.80 "HgN/A
6:50 PM43 °FThundershowers. Passing clouds.2 mph71%29.77 "HgN/A
6:20 PM46 °FPassing clouds.3 mph62%29.77 "HgN/A
5:50 PM45 °FPassing clouds.5 mph66%29.77 "HgN/A
5:20 PM48 °FPartly cloudy.6 mph62%29.77 "HgN/A
4:50 PM50 °FBroken clouds.6 mph58%29.77 "HgN/A
4:20 PM50 °FBroken clouds.2 mph58%29.77 "HgN/A
3:50 PM50 °FBroken clouds.5 mph62%29.77 "HgN/A
3:20 PM54 °FMostly cloudy.5 mph51%29.77 "HgN/A
2:50 PM54 °FBroken clouds.5 mph51%29.77 "HgN/A
2:20 PM54 °FBroken clouds.3 mph51%29.77 "HgN/A
1:50 PM54 °FPartly sunny.3 mph54%29.77 "HgN/A
1:20 PM54 °FBroken clouds.No wind58%29.77 "HgN/A
12:50 PM54 °FBroken clouds.No wind58%29.77 "HgN/A
12:20 PM52 °FBroken clouds.2 mph62%29.80 "HgN/A
11:50 AM52 °FBroken clouds.2 mph62%29.80 "HgN/A
11:20 AM50 °FBroken clouds.3 mph67%29.80 "HgN/A
10:50 AM50 °FBroken clouds.2 mph71%29.80 "HgN/A
10:20 AM48 °FBroken clouds.2 mph76%29.80 "HgN/A
9:50 AM46 °FBroken clouds.2 mph82%29.80 "HgN/A
9:20 AM46 °FBroken clouds.No wind82%29.80 "HgN/A
8:50 AM45 °FBroken clouds.No wind81%29.80 "HgN/A
8:20 AM43 °FBroken clouds.No wind93%29.80 "Hg4 mi
Weather by CustomWeather, © 2014

See weather overviewHow to use our weather pages